KE5VT Weather Reports


Display with metric or nautical units.
time (UTC)temp
F
wind
direction
speed
MPH
gust
MPH
rain 1hr
in
rain 24hr
in
rain mn
in
humidity
%
barometer
mb
20260508154546 65 215 0.0 1.0 0.00 0.00 0.00 52 1014.4
20260508154043 64 210 0.0 1.0 0.00 0.00 0.00 55 1014.6
20260508153539 64 77 0.0 0.0 0.00 0.00 0.00 61 1014.6
20260508153036 63 73 0.0 0.0 0.00 0.00 0.00 60 1014.5
20260508152533 64 59 2.0 2.0 0.00 0.00 0.00 64 1014.3
20260508152028 63 77 0.0 0.0 0.00 0.00 0.00 63 1014.4
20260508151525 62 72 1.0 2.0 0.00 0.00 0.00 61 1014.4
20260508151022 62 73 0.0 0.0 0.00 0.00 0.00 62 1014.5
20260508150519 62 74 0.0 0.0 0.00 0.00 0.00 64 1014.2
20260508150015 62 75 0.0 1.0 0.00 0.00 0.00 61 1014.3
20260508145512 62 62 0.0 1.0 0.00 0.00 0.00 65 1014.4
20260508145008 62 58 1.0 2.0 0.00 0.00 0.00 64 1014.4
20260508144506 62 71 0.0 0.0 0.00 0.00 0.00 68 1014.4
20260508144003 61 66 0.0 0.0 0.00 0.00 0.00 66 1014.6
20260508143500 61 72 1.0 2.0 0.00 0.00 0.00 65 1014.6
20260508142956 61 66 0.0 1.0 0.00 0.00 0.00 71 1014.4
20260508142454 61 63 1.0 1.0 0.00 0.00 0.00 68 1014.4
20260508141950 60 62 1.0 2.0 0.00 0.00 0.00 68 1014.8
20260508141447 60 62 1.0 2.0 0.00 0.00 0.00 69 1014.7
20260508140945 60 65 0.0 1.0 0.00 0.00 0.00 68 1014.7
20260508140442 59 69 0.0 0.0 0.00 0.00 0.00 71 1014.6
20260508135937 59 77 0.0 1.0 0.00 0.00 0.00 72 1014.7
20260508135434 59 77 0.0 0.0 0.00 0.00 0.00 74 1014.7
20260508134931 59 75 0.0 0.0 0.00 0.00 0.00 75 1014.7
20260508134427 58 69 0.0 0.0 0.00 0.00 0.00 75 1014.5
20260508133924 58 77 0.0 0.0 0.00 0.00 0.00 76 1014.3
20260508133421 58 79 0.0 1.0 0.00 0.00 0.00 76 1014.5
20260508132918 58 73 0.0 0.0 0.00 0.00 0.00 85 1014.4
20260508132416 57 74 0.0 1.0 0.00 0.00 0.00 85 1014.3
20260508131913 58 31 1.0 2.0 0.00 0.00 0.00 86 1014.4
20260508131408 57 76 0.0 0.0 0.00 0.00 0.00 88 1014.3
20260508130905 56 65 0.0 1.0 0.00 0.00 0.00 89 1014.5
20260508130402 55 70 0.0 1.0 0.00 0.00 0.00 92 1014.4
20260508125857 55 70 0.0 0.0 0.00 0.00 0.00 94 1014.1
20260508125354 54 68 0.0 0.0 0.00 0.00 0.00 98 1014.2
20260508124852 54 68 0.0 1.0 0.00 0.00 0.00 99 1014.0
20260508124349 54 84 0.0 0.0 0.00 0.00 0.00 99 1014.1
20260508123847 54 77 0.0 0.0 0.00 0.00 0.00 99 1014.0
20260508123345 55 76 0.0 0.0 0.00 0.00 0.00 99 1014.0
20260508122841 55 74 0.0 0.0 0.00 0.00 0.00 99 1013.8
20260508122338 54 87 0.0 0.0 0.00 0.00 0.00 99 1013.9
20260508121836 54 84 0.0 0.0 0.00 0.00 0.00 99 1013.7
20260508121334 53 83 0.0 0.0 0.00 0.00 0.00 99 1013.6
20260508120831 53 73 0.0 0.0 0.00 0.00 0.00 99 1013.6
20260508120329 53 60 0.0 0.0 0.00 0.00 0.00 99 1013.5
20260508115826 53 72 0.0 1.0 0.00 0.00 0.00 99 1013.5
20260508115324 54 63 0.0 0.0 0.00 0.00 0.00 99 1013.5
20260508114820 54 75 0.0 0.0 0.00 0.00 0.00 99 1013.3
20260508114317 54 79 0.0 0.0 0.00 0.00 0.00 99 1013.2
20260508113813 54 79 0.0 0.0 0.00 0.00 0.00 99 1013.3
20260508113312 54 79 0.0 0.0 0.00 0.00 0.00 99 1013.0
20260508112808 54 79 0.0 0.0 0.00 0.00 0.00 99 1013.0
20260508112307 54 79 0.0 0.0 0.00 0.00 0.00 99 1013.0
20260508111801 54 79 0.0 0.0 0.00 0.00 0.00 99 1012.9
20260508111259 53 79 0.0 0.0 0.00 0.00 0.00 99 1012.8
20260508110756 53 79 0.0 0.0 0.00 0.00 0.00 99 1012.6
20260508110254 53 79 0.0 0.0 0.00 0.00 0.00 99 1012.7
20260508105753 53 79 0.0 0.0 0.00 0.00 0.00 99 1012.4
20260508105250 53 79 0.0 0.0 0.00 0.00 0.00 99 1012.5
20260508104747 53 79 0.0 0.0 0.00 0.00 0.00 99 1012.5
20260508104244 53 79 0.0 0.0 0.00 0.00 0.00 99 1012.5
20260508103742 53 79 0.0 0.0 0.00 0.00 0.00 99 1012.4
20260508103238 53 79 0.0 0.0 0.00 0.00 0.00 99 1012.0
20260508102735 53 79 0.0 0.0 0.00 0.00 0.00 99 1012.1
20260508102233 53 79 0.0 0.0 0.00 0.00 0.00 99 1011.8
20260508101730 53 79 0.0 0.0 0.00 0.00 0.00 99 1011.7
20260508101228 53 79 0.0 0.0 0.00 0.00 0.00 99 1011.7
20260508100726 53 79 0.0 0.0 0.00 0.00 0.00 99 1011.6
20260508100224 53 79 0.0 0.0 0.00 0.00 0.00 99 1011.8
20260508095719 53 82 0.0 0.0 0.00 0.00 0.00 99 1011.8
20260508095217 53 82 0.0 0.0 0.00 0.00 0.00 99 1011.8
20260508094713 53 82 0.0 0.0 0.00 0.00 0.00 99 1011.7
20260508094211 53 82 0.0 0.0 0.00 0.00 0.00 99 1011.6
20260508093707 53 82 0.0 0.0 0.00 0.00 0.00 99 1011.5
20260508093206 53 82 0.0 0.0 0.00 0.00 0.00 99 1011.6
20260508092702 53 82 0.0 0.0 0.00 0.00 0.00 99 1011.4
20260508092201 53 82 0.0 0.0 0.00 0.00 0.00 99 1011.5
20260508091658 53 82 0.0 0.0 0.00 0.00 0.00 99 1011.6
20260508091155 53 82 0.0 0.0 0.00 0.00 0.00 99 1011.4
20260508090652 53 82 0.0 0.0 0.00 0.00 0.00 99 1011.4
20260508090150 53 82 0.0 0.0 0.00 0.00 0.00 99 1011.5
20260508085645 53 82 0.0 0.0 0.00 0.00 0.00 99 1011.3
20260508085143 54 82 0.0 0.0 0.00 0.00 0.00 99 1011.3
20260508084639 54 82 0.0 0.0 0.00 0.00 0.00 99 1011.4
20260508084136 54 82 0.0 0.0 0.00 0.00 0.00 99 1011.5
20260508083634 54 82 0.0 0.0 0.00 0.00 0.00 99 1011.4
20260508083131 54 82 0.0 0.0 0.00 0.00 0.00 99 1011.4
20260508082626 54 82 0.0 0.0 0.00 0.00 0.00 99 1011.1
20260508082124 54 82 0.0 0.0 0.00 0.00 0.00 99 1011.3
20260508081621 54 82 0.0 0.0 0.00 0.00 0.00 99 1011.2
20260508081118 54 82 0.0 0.0 0.00 0.00 0.00 99 1011.2
20260508080615 54 82 0.0 0.0 0.00 0.00 0.00 99 1010.9
20260508080113 54 82 0.0 0.0 0.00 0.00 0.00 99 1010.8
20260508075609 54 82 0.0 0.0 0.00 0.00 0.00 99 1010.8
20260508075106 54 82 0.0 0.0 0.00 0.00 0.00 99 1010.9
20260508074604 54 82 0.0 0.0 0.00 0.00 0.00 99 1010.9
20260508074101 54 81 0.0 0.0 0.00 0.00 0.00 99 1010.9
20260508073558 55 82 0.0 0.0 0.00 0.00 0.00 99 1010.7
20260508073056 55 81 0.0 0.0 0.00 0.00 0.00 99 1010.7
20260508072551 55 82 0.0 0.0 0.00 0.00 0.00 99 1010.5
20260508072048 55 82 0.0 0.0 0.00 0.00 0.00 99 1010.7
20260508071546 55 81 0.0 0.0 0.00 0.00 0.00 99 1010.7
20260508071044 55 81 0.0 0.0 0.00 0.00 0.00 99 1010.7
20260508070541 55 81 0.0 0.0 0.00 0.00 0.00 99 1010.7
20260508070040 55 81 0.0 0.0 0.00 0.00 0.00 99 1010.6
20260508065537 55 81 0.0 0.0 0.00 0.00 0.00 99 1010.7
20260508065035 55 81 0.0 0.0 0.00 0.00 0.00 99 1010.6
20260508064532 55 81 0.0 0.0 0.00 0.00 0.00 99 1010.4
20260508064030 56 82 0.0 0.0 0.00 0.00 0.00 99 1010.6
20260508063527 56 82 0.0 0.0 0.00 0.00 0.00 99 1010.5
20260508063025 56 81 0.0 0.0 0.00 0.00 0.00 99 1010.6
20260508062522 56 81 0.0 0.0 0.00 0.00 0.00 99 1010.7
20260508062019 56 81 0.0 0.0 0.00 0.00 0.00 99 1010.8
20260508061517 56 81 0.0 0.0 0.00 0.00 0.00 99 1010.7
20260508061013 56 82 0.0 0.0 0.00 0.00 0.00 99 1010.8
20260508060510 56 81 0.0 0.0 0.00 0.00 0.00 99 1010.8
20260508060008 56 81 0.0 0.0 0.00 0.00 0.00 99 1010.8
20260508055503 57 81 0.0 0.0 0.00 0.00 0.00 99 1010.7
20260508055000 56 81 0.0 0.0 0.00 0.00 0.00 99 1010.8
20260508054457 57 81 0.0 0.0 0.00 0.00 0.00 99 1010.7
20260508053953 57 81 0.0 0.0 0.00 0.00 0.00 99 1011.0
20260508053450 57 81 0.0 0.0 0.00 0.00 0.00 99 1010.7
20260508052948 57 81 0.0 0.0 0.00 0.00 0.00 99 1010.9
20260508052446 57 81 0.0 0.0 0.00 0.00 0.00 99 1010.8
20260508051942 57 81 0.0 0.0 0.00 0.00 0.00 99 1010.5
20260508051438 57 81 0.0 0.0 0.00 0.00 0.00 99 1010.8
20260508050934 57 79 0.0 0.0 0.00 0.00 0.00 99 1010.9
20260508050431 57 79 0.0 0.0 0.00 0.00 0.00 99 1010.8
20260508045927 57 79 0.0 0.0 0.00 0.00 0.00 99 1010.6
20260508045425 57 79 0.0 0.0 0.00 0.00 0.00 99 1010.5
20260508044922 57 79 0.0 0.0 0.00 0.00 0.00 99 1010.5
20260508044419 57 79 0.0 0.0 0.00 0.00 0.00 99 1010.4
20260508043914 58 79 0.0 0.0 0.00 0.00 0.00 99 1010.4
20260508043412 58 79 0.0 0.0 0.00 0.00 0.00 99 1010.2
20260508042908 58 79 0.0 0.0 0.00 0.00 0.00 99 1010.2
20260508042406 58 79 0.0 0.0 0.00 0.00 0.00 99 1010.4
20260508041903 58 79 0.0 0.0 0.00 0.00 0.00 99 1010.2
20260508041359 58 79 0.0 0.0 0.00 0.00 0.00 99 1010.4
20260508040855 58 79 0.0 0.0 0.00 0.00 0.00 99 1010.3
20260508040353 58 78 0.0 0.0 0.00 0.00 0.00 99 1010.2
20260508035851 58 78 0.0 0.0 0.00 2.04 2.04 99 1010.4
20260508035348 58 78 0.0 0.0 0.07 2.04 2.04 99 1010.2
20260508034844 58 78 0.0 0.0 0.07 2.04 2.04 99 1010.2
20260508034342 58 78 0.0 0.0 0.00 2.03 2.03 99 1010.2
20260508033838 58 78 0.0 0.0 0.00 2.03 2.03 99 1010.1
20260508033336 58 78 0.0 0.0 0.00 2.03 2.03 99 1010.1
20260508032833 58 75 0.0 0.0 0.00 2.03 2.03 99 1010.0
20260508032331 58 78 0.0 0.0 0.00 2.03 2.03 99 1009.9
20260508031827 58 79 0.0 0.0 0.00 2.03 2.03 99 1010.2
20260508031324 58 78 0.0 0.0 0.00 2.03 2.03 99 1010.1
20260508030821 58 86 0.0 0.0 0.00 2.03 2.03 99 1010.1
20260508030318 58 89 0.0 0.0 0.00 2.03 2.03 99 1010.1
20260508025814 58 89 0.0 0.0 0.00 2.03 2.03 99 1009.8
20260508025312 58 78 0.0 0.0 0.00 2.03 2.03 99 1009.9
20260508024808 58 77 0.0 0.0 0.00 2.03 2.03 99 1009.9
20260508024305 58 82 0.0 0.0 0.00 2.03 2.03 99 1009.8
20260508023802 58 76 0.0 0.0 0.00 2.03 2.03 99 1009.6
20260508023259 58 82 0.0 0.0 0.00 2.03 2.03 99 1009.8
20260508022754 58 71 0.0 0.0 0.00 2.03 2.03 99 1009.8
20260508022251 58 71 0.0 0.0 0.00 2.03 2.03 99 1009.5
20260508021748 58 72 0.0 0.0 0.00 2.03 2.03 99 1009.5
20260508021243 58 73 0.0 0.0 0.00 2.03 2.03 99 1009.4
20260508020741 58 74 0.0 0.0 0.00 2.03 2.03 99 1009.1
20260508020238 58 65 0.0 0.0 0.00 2.03 2.03 99 1009.1
20260508015735 58 62 0.0 1.0 0.00 2.03 2.03 99 1009.0
20260508015232 58 76 0.0 0.0 0.00 2.03 2.03 99 1009.1
20260508014729 58 68 0.0 0.0 0.00 2.03 2.03 99 1009.0
20260508014226 58 81 0.0 0.0 0.00 2.03 2.03 99 1009.0
20260508013721 58 64 1.0 1.0 0.00 2.03 2.03 99 1008.8
20260508013218 58 68 1.0 2.0 0.00 2.03 2.03 99 1008.4
20260508012716 58 35 2.0 2.0 0.00 2.03 2.03 99 1008.2
20260508012213 58 61 1.0 2.0 0.00 2.03 2.03 99 1008.5
20260508011711 58 45 0.0 1.0 0.00 2.03 2.03 99 1008.3
20260508011208 58 63 1.0 1.0 0.00 2.03 2.03 99 1008.1
20260508010705 58 74 2.0 2.0 0.00 2.03 2.03 99 1008.2
20260508010203 59 63 0.0 1.0 0.00 2.03 2.03 99 1007.9
20260508005700 59 62 1.0 1.0 0.00 2.03 2.03 99 1007.9
20260508005156 59 68 0.0 1.0 0.00 2.03 2.03 99 1008.0
20260508004652 59 52 0.0 1.0 0.00 2.03 2.03 99 1008.2
20260508004148 59 72 0.0 0.0 0.00 2.03 2.03 99 1008.0
20260508003645 59 72 0.0 0.0 0.00 2.03 2.03 99 1007.7
20260508003143 59 89 0.0 0.0 0.00 2.03 2.03 99 1007.6
20260508002639 59 71 0.0 0.0 0.00 2.03 2.03 99 1007.5
20260508002137 59 64 0.0 1.0 0.17 2.03 2.03 99 1007.4
20260508001631 59 64 2.0 4.0 0.59 2.03 2.03 99 1007.2
20260508001128 60 46 1.0 4.0 0.85 2.00 2.00 99 1006.7
20260508000624 60 64 0.0 1.0 0.78 1.94 1.94 98 1006.9
20260508000122 62 61 2.0 3.0 0.78 1.87 1.87 97 1006.7
20260507235618 63 66 0.0 0.0 0.78 1.81 1.81 95 1006.7
20260507235116 64 65 0.0 1.0 0.24 1.72 1.72 92 1006.6
20260507234612 64 71 2.0 2.0 0.00 1.68 1.68 89 1006.1
20260507234108 65 67 0.0 0.0 0.00 1.68 1.68 89 1005.8
20260507233606 65 70 0.0 1.0 0.00 1.68 1.68 88 1005.5
20260507233104 65 72 0.0 0.0 0.00 1.68 1.68 87 1005.5
20260507232600 66 150 1.0 1.0 0.00 1.68 1.68 87 1005.0
20260507232058 67 57 2.0 2.0 0.00 1.68 1.68 86 1005.3
20260507231553 72 61 5.0 7.0 0.00 1.68 1.68 82 1005.0
20260507231051 76 67 2.0 3.0 0.00 1.68 1.68 73 1004.4
20260507230547 76 339 1.0 1.0 0.00 1.68 1.68 72 1004.3
20260507230044 76 256 4.0 6.0 0.00 1.68 1.68 72 1003.9
20260507225539 76 307 4.0 6.0 0.00 1.68 1.68 72 1003.9
20260507225036 76 227 3.0 4.0 0.00 1.68 1.68 72 1003.8
20260507224531 76 281 5.0 8.0 0.00 1.68 1.68 73 1003.9
20260507224028 76 272 3.0 3.0 0.00 1.68 1.68 74 1003.5
20260507223524 76 298 3.0 3.0 0.00 1.68 1.68 74 1003.6
20260507223022 76 209 1.0 2.0 0.00 1.68 1.68 74 1003.4
20260507222519 76 220 2.0 2.0 0.00 1.68 1.68 74 1003.8
20260507222015 77 320 2.0 2.0 0.00 1.68 1.68 72 1003.9
20260507221512 77 261 4.0 7.0 0.00 1.68 1.68 72 1003.6
20260507221008 77 316 3.0 3.0 0.00 1.68 1.68 73 1003.7
20260507220506 77 270 5.0 6.0 0.00 1.68 1.68 73 1003.6
20260507220002 76 292 4.0 4.0 0.00 1.68 1.68 74 1003.7
20260507215458 77 262 3.0 3.0 0.00 1.68 1.68 70 1003.5
20260507214957 76 283 2.0 3.0 0.00 1.68 1.68 72 1003.9
20260507214453 77 243 2.0 3.0 0.00 1.68 1.68 71 1003.8
20260507213949 78 299 9.0 11.0 0.00 1.68 1.68 69 1003.6
20260507213446 78 232 1.0 1.0 0.00 1.68 1.68 74 1003.7
20260507212943 78 313 1.0 1.0 0.00 1.68 1.68 70 1003.6
20260507212438 79 285 1.0 1.0 0.00 1.68 1.68 70 1003.8
20260507211936 78 221 0.0 0.0 0.00 1.68 1.68 72 1003.7
20260507211432 78 277 6.0 8.0 0.00 1.68 1.68 72 1003.7
20260507210929 79 266 7.0 8.0 0.00 1.68 1.68 72 1003.7
20260507210426 77 286 3.0 3.0 0.00 1.68 1.68 72 1004.0
20260507205923 76 255 0.0 0.0 0.00 1.68 1.68 74 1003.9
20260507205420 76 283 4.0 4.0 0.00 1.68 1.68 74 1004.0
20260507204916 78 286 2.0 4.0 0.00 1.68 1.68 72 1003.4
20260507204412 78 270 2.0 3.0 0.00 1.68 1.68 70 1003.5
20260507203910 77 266 0.0 0.0 0.00 1.68 1.68 73 1003.5
20260507203408 77 196 0.0 0.0 0.00 1.68 1.68 74 1004.0
20260507202904 76 263 2.0 4.0 0.00 1.68 1.68 75 1003.9
20260507202401 76 248 1.0 2.0 0.00 1.68 1.68 76 1003.7
20260507201856 78 201 0.0 0.0 0.00 1.68 1.68 73 1003.8
20260507201352 77 243 0.0 0.0 0.00 1.68 1.68 76 1004.0
20260507200848 75 214 3.0 4.0 0.00 1.68 1.68 76 1004.1
20260507200344 75 279 3.0 6.0 0.00 1.68 1.68 76 1004.2
20260507195841 76 298 1.0 2.0 0.00 1.68 1.68 75 1004.1
20260507195338 75 285 2.0 3.0 0.00 1.68 1.68 75 1004.2
20260507194835 76 347 0.0 2.0 0.00 1.68 1.68 75 1004.3
20260507194331 77 134 1.0 2.0 0.00 1.68 1.68 74 1004.1
20260507193828 76 280 0.0 0.0 0.00 1.68 1.68 74 1004.3
20260507193326 76 293 2.0 4.0 0.00 1.68 1.68 73 1004.6
20260507192821 75 276 7.0 9.0 0.00 1.68 1.68 73 1004.5
20260507192318 76 231 1.0 4.0 0.00 1.68 1.68 73 1004.6
20260507191814 75 174 0.0 0.0 0.00 1.68 1.68 73 1004.7
20260507191310 74 333 0.0 0.0 0.00 1.68 1.68 77 1004.7
20260507190808 73 264 0.0 0.0 0.00 1.68 1.68 78 1004.9
20260507190306 73 281 2.0 4.0 0.00 1.68 1.68 78 1004.9
20260507185804 74 288 0.0 0.0 0.00 1.68 1.68 78 1005.0
20260507185301 75 329 4.0 8.0 0.00 1.68 1.68 76 1004.8
20260507184758 75 224 2.0 3.0 0.00 1.68 1.68 75 1004.8
20260507184256 75 221 1.0 3.0 0.00 1.68 1.68 76 1004.6
20260507183753 76 260 0.0 0.0 0.00 1.68 1.68 75 1004.6
20260507183250 77 303 0.0 1.0 0.00 1.68 1.68 75 1004.6
20260507182747 76 34 0.0 0.0 0.00 1.68 1.68 77 1004.6
20260507182242 74 192 0.0 0.0 0.00 1.68 1.68 81 1004.8
20260507181739 73 210 0.0 0.0 0.00 1.68 1.68 82 1004.9
20260507181235 72 250 0.0 0.0 0.00 1.68 1.68 83 1004.5
20260507180732 72 257 0.0 0.0 0.00 1.68 1.68 86 1004.7
20260507180229 71 282 3.0 3.0 0.00 1.68 1.68 88 1004.8
20260507175724 71 291 0.0 0.0 0.00 1.68 1.68 88 1004.8
20260507175222 70 234 0.0 1.0 0.00 1.68 1.68 90 1004.9
20260507174720 70 309 1.0 1.0 0.00 1.68 1.68 90 1004.9
20260507174217 69 5 1.0 2.0 0.00 1.68 1.68 91 1004.7
20260507173715 69 300 3.0 3.0 0.00 1.68 1.68 91 1004.9
20260507173211 68 67 0.0 0.0 0.00 1.68 1.68 94 1005.0
20260507172708 68 255 2.0 2.0 0.00 1.68 1.68 95 1005.2
20260507172205 67 281 3.0 4.0 0.00 1.68 1.68 97 1005.3
20260507171704 66 235 3.0 3.0 0.00 1.68 1.68 99 1005.8
20260507171202 66 250 1.0 2.0 0.00 1.68 1.68 99 1005.6
20260507170659 66 242 2.0 3.0 0.00 1.68 1.68 99 1005.4
20260507170156 66 247 1.0 1.0 0.00 1.68 1.68 99 1005.4
20260507165652 67 193 0.0 0.0 0.00 1.68 1.68 99 1005.5
20260507165148 66 240 1.0 2.0 0.00 1.68 1.68 99 1005.2
20260507164644 67 293 0.0 0.0 0.00 1.68 1.68 99 1005.6
20260507164141 66 40 1.0 2.0 0.00 1.68 1.68 99 1005.2
20260507163638 68 266 2.0 2.0 0.00 1.68 1.68 99 1005.4
20260507163137 67 142 0.0 0.0 0.00 1.68 1.68 99 1005.5
20260507162632 67 24 1.0 2.0 0.00 1.68 1.68 99 1005.8
20260507162128 66 272 4.0 4.0 0.00 1.68 1.68 99 1006.1
20260507161625 66 308 0.0 0.0 0.00 1.68 1.68 99 1006.4
20260507161121 66 272 3.0 4.0 0.00 1.68 1.68 99 1006.5
20260507160618 66 257 1.0 2.0 0.00 1.68 1.68 99 1005.9
20260507160114 66 199 0.0 0.0 0.00 1.68 1.68 99 1005.8
20260507155609 66 199 0.0 0.0 0.00 1.68 1.68 99 1005.8
20260507155107 66 251 1.0 2.0 0.00 1.68 1.68 99 1005.6